2019-093M (44890 NORAD) Tracking and Keplerian Element Data

This shows tracking and keplerian element data for the satellite.

Feedback or suggestion? Click here.




ElementValue
Catalog44890
Name2019-093M
Epoch Orbit421
Epoch Day18.08298616
Epoch Year2020
RAAN95.0524
Inclination97.9228
Eccentricity0.0048922
Argument of Perigee191.6454
Mean Anonmoly168.3622
Mean Motion14.85482475
Decay Rate3.08E-06
L11 44890U 19093M 20018.08298616 .00000308 00000-0 41518-4 0 9992
L22 44890 97.9228 95.0524 0048922 191.6454 168.3622 14.85482475 4217

Live tracking and technical data element details for 2019-093M (NORAD 44890). 2019-093M can be tracked NOW for your location showing map with azimuth and elevation plus other details from your city location.

Track the satellite on the map from your city or location and see movement details for azimuth, elevation, latitude, longitude, range, height, and movement on the map or in text.







IsCatalogInMostPopularTable: catalog: 44890, numindb: 6
Update: records affected: 1



GetName: 44890 2019-093M

Hit Count: updated at: Fri, 24 Jan 2020 11:30:37 GMT